World > North America > United States > Ohio   City of Portsmouth, Ohio
Hourly regional weather for Portsmouth, OhioPortsmouth, Ohio Regional Hourly Weather

Portsmouth, Ohio Regional Weather

regional weather portsmouth, ohHOURLY REGIONAL WEATHER FOR PORTSMOUTH, OH
Lat: 38.76N, Lon: 82.95W 
Web Search

Pass this page to a friend. Tell them to point their camera at the QR Code near the bottom of this page.

Feedback


°F Click to change Portsmouth hourly weather to Imperial units.Click to change Portsmouth hourly weather to Metric units. °C
Portsmouth Weather Map
UTC Time: 9/22/2021, 21:10
Your Time:

Portsmouth, OH Regional Weather

Expires:202109222200;;020752
ASUS41 KCLE 222110
RWRCLE
OHIO REGIONAL WEATHER ROUNDUP
NATIONAL WEATHER SERVICE CLEVELAND, OH
500 PM EDT WED SEP 22 2021

NOTE: "FAIR" INDICATES FEW OR NO CLOUDS BELOW 12,000 FEET WITH NO
SIGNIFICANT WEATHER AND/OR OBSTRUCTIONS TO VISIBILITY.


OHZ036-037-039>041-045>050-054>059-063>069-073>076-082>088-222200-
  CENTRAL AND SOUTHEAST OHIO
  
CITY           SKY/WX    TMP DP  RH WIND       PRES   REMARKS
COLUMBUS       CLOUDY    58  56  93 NW16      29.74S                  
OSU AIRPORT    CLOUDY    59  55  87 NW16G25   29.76R                  
BOLTON FIELD   CLOUDY    57  55  94 NW17G24   29.77S                  
RICKENBACK AFB CLOUDY    59  56  89 NW13      29.76S                  
NEWARK         CLOUDY    62  57  83 W15       29.72F                  
MARION         LGT RAIN  57  55  93 NW13      29.76F FOG              
LANCASTER      CLOUDY    60  57  89 W15G23    29.76F                  
ZANESVILLE     LGT RAIN  63  61  93 W8        29.72F                  
NEW PHILLY     NOT AVBL                                               
$$
  

SKY/WX - Weather  TMP - Temperature  DP - Dew Point  RH - Relative Humidity
WIND - Wind Direction/Speed PRES - Barometric Pressure VSB - Visibility
WCI - Wind Chill Index E13G22 Wind - East Wind 13 mph/Gusts of 22 mph